Regional Weather Roundup
Issued by NWS Sterling, VA

Home | Current Version | Previous Version | Text Only | Print | Product List | Glossary Off
Versions: 1 2 3 4 5 6 7 8 9 10 11 12 13 14 15 16 17 18 19 20 21 22 23 24 25 26 27 28

000
ASUS41 KLWX 230510
RWRLWX

REGIONAL WEATHER ROUNDUP
NATIONAL WEATHER SERVICE BALTIMORE MD/WASHINGTON DC
100 AM EDT SAT JUL 23 2016

Note: "FAIR" indicates few or no clouds below 12,000 feet
with no significant weather and/or obstructions to visibility.
 TC=TEMPERATURE CELSIUS

 * =Non NWS site. Station does not report precipitation (e.g. rain,
    snow, etc.), thunder, or fog.

DCZ001-MDZ009-015-VAZ040>042-051-053>054-230600-
WASHINGTON METRO

CITY           SKY/WX    TMP DP  RH WIND       PRES   REMARKS
WASHINGTON NAT FAIR      83  71  67 SW8       29.93S
DULLES         FAIR      78  71  79 S3        29.95S
ANDREWS AFB    CLEAR     80  71  74 SW7       29.93S
FT BELVOIR     FAIR      75  71  89 CALM      29.94S
QUANTICO       FAIR      79  73  82 NW7       29.94F
COLLEGE PARK*  FAIR      81  70  69 CALM      29.92F
LEESBURG*      FAIR      79  77  94 W6        29.96S
MANASSAS*      FAIR      75  75 100 CALM      29.95S
GAITHERSBURG*  CLEAR     75  70  83 CALM      29.98F

$$

MDZ006>007-011-014-230600-
BALTIMORE METRO

CITY           SKY/WX    TMP DP  RH WIND       PRES   REMARKS
BWI AIRPORT    PTCLDY    81  71  71 W8        29.91S
MD SCIENCE CTR   N/A     84  69  60 MISG      29.91S
MARTIN STATE   CLEAR     84  72  65 W7        29.91S
ANNAPOLIS      CLEAR     83  72  69 W5        29.90F
FORT MEADE*    CLEAR     73  70  88 W5        29.94F

$$

MDZ012-015-019>023-230600-
MARYLAND EASTERN SHORE

CITY           SKY/WX    TMP DP  RH WIND       PRES   REMARKS
OCEAN CITY     PTCLDY    81  76  84 W8        29.92F
SALISBURY      CLEAR     77  76  96 SW7       29.92F
BAY BRIDGE AP* CLEAR     82  73  74 W8        29.91S
CAMBRIDGE*     CLEAR     77  72  83 CALM      29.92S
EASTON*        CLEAR     84  75  74 SW6       29.95S HX  92

$$

MDZ017>025-230600-
SOUTHERN MARYLAND

CITY           SKY/WX    TMP DP  RH WIND       PRES   REMARKS
PATUXENT RIVER CLEAR     80  71  74 SW9       29.92F
ST INIGOES     CLEAR     83  75  77 SW9       29.93S HX  90
LEONARDTOWN*   CLEAR     79  70  73 SW6       29.95F

$$

MDZ003>005-230600-
NORTH CENTRAL MARYLAND

CITY           SKY/WX    TMP DP  RH WIND       PRES   REMARKS
FREDERICK*     CLEAR     73  72  94 S3        29.96S
HAGERSTOWN APT CLEAR     82  69  64 SW6       29.95S

$$

MDZ501>502-230600-
WESTERN MARYLAND

CITY           SKY/WX    TMP DP  RH WIND       PRES   REMARKS
OAKLAND*       CLEAR     68  68 100 W8        30.13S FOG
CUMBERLAND*    CLEAR     77  72  83 CALM      30.02S

$$

VAZ025>031-230600-
SHENANDOAH VALLEY

CITY           SKY/WX    TMP DP  RH WIND       PRES   REMARKS
WINCHESTER*    FAIR      75  68  78 S3        29.98R
FRONT ROYAL*   FAIR      77  72  83 SW5       29.97S
LURAY*         FAIR      73  73 100 CALM      30.00S
NEW MARKET*    FAIR     N/A N/A N/A CALM      30.00R
STAUNTON*      FAIR      70  67  92 SW5       30.05S
WAYNESBORO*    FAIR      72  68  89 CALM      30.05S

$$

WVZ021-048>050-054>055-230600-
EASTERN WEST VIRGINIA PANHANDLE

CITY           SKY/WX    TMP DP  RH WIND       PRES   REMARKS
MARTINSBURG    FAIR      79  69  71 SW5       29.95S
PETERSBURG*    FAIR      71  70  96 CALM      30.02R

$$

VAZ036>039-050-230600-
CENTRAL FOOTHILLS

CITY           SKY/WX    TMP DP  RH WIND       PRES   REMARKS
CHARLOTTESVILL FAIR      78  71  79 CALM      29.98F
CULPEPER*      FAIR      73  73  98 CALM      29.97S
ORANGE*          N/A     73  73 100 CALM      29.98S
GORDONSVILLE*  FAIR      73  70  92 CALM      29.97S
WARRENTON*     FAIR      74  68  82 CALM      29.95S

$$

VAZ055>057-230600-
NORTH AND CENTRAL PIEDMONT

CITY           SKY/WX    TMP DP  RH WIND       PRES   REMARKS
FREDERICKSBRG* FAIR      78  73  85 CALM      29.94S
STAFFORD*      FAIR      74  70  87 CALM      29.99S

$$

NCZ024-NYZ072-PAZ021-071-VAZ022-071-230600-
OTHER REGIONAL OBSERVATIONS

CITY           SKY/WX    TMP DP  RH WIND       PRES   REMARKS
NEW YORK CITY  CLEAR     84  68  58 W8        29.85R
PHILADELPHIA   CLEAR     81  72  74 SW8       29.87S
PITTSBURGH     MOCLDY    76  66  71 W7        30.01S
ROANOKE        FAIR      78  68  71 W5        30.06S
RICHMOND       FAIR      80  74  81 SW8       29.96S
RALEIGH        PTCLDY    74  71  91 W5        30.02S

$$

ANZ530>537-230600-
MARINE OBSERVATIONS

STATION/POSITION TIME  TEMP    WIND        PRES
                       AIR SEA DIR/SP/G
                 (UTC) (F)     (DEG/KT/KT) (MB)
THOMAS PT LIGHT  0500   83 81  260/ 15/ 16 1014.0F
BALT KEY BRIDGE  0448   85     240/ 13/ 16 1012.2
COVE POINT       0448   83     260/  6/ 10 1013.8
LEWISETTA        0448   82 85  250/  8/ 10 1013.3
SOLOMONS ISLAND  0442   82 83  230/ 11/ 13   N/A
PINEY POINT      0448          250/  4/  6   N/A

$$





USA.gov is the U.S. government's official web portal to all federal, state and local government web resources and services.